Location: Pedholt
(56.0260°N, 10.2097°E)
Time: 02:19:50
(UTC+00:00)

A-11 Canister half - Pass Details

Date: 01 August 2021
Orbit: 1514 x 1685 km, 47.2° (Epoch: 16 September)

Event Time Altitude Azimuth Distance (km) Brightness Sun altitude
Rises 14:49:27 0° 189° (S) 4,771 12.0 36.1°
Reaches altitude 10° 14:53:40 10° 173° (S) 3,820 11.4 35.6°
Maximum altitude 14:59:54 19° 132° (SE) 3,183 10.6 34.7°
Drops below altitude 10° 15:06:16 10° 92° (E) 3,912 10.8 33.9°
Sets 15:10:36 0° 77° (ENE) 4,924 11.1 33.3°
